Weather History for Sallisaw, OK

Change the Weather History Date:

Wednesday, April 10, 2013

  Actual Average Record
Temperature  
Mean Temperature 58 °F -  
Max Temperature 77 °F 71 °F 85 °F (1992)
Min Temperature 39 °F 46 °F 30 °F (2003)
Degree Days  
Heating Degree Days 7    
Growing Degree Days 8 (Base 50)    
Moisture  
Dew Point 44 °F    
Average Humidity 85    
Maximum Humidity 100    
Minimum Humidity 61    
Precipitation  
Precipitation 0.49 in - - ()
Sea Level Pressure  
Sea Level Pressure 29.85 in    
Wind  
Wind Speed 11 mph (WNW)    
Max Wind Speed 18 mph    
Max Gust Speed 31 mph    
Visibility 9 miles    
Events Rain , Thunderstorm    
Averages and records for this station are not official NWS values.
T = Trace of Precipitation, MM = Missing Value Source: NWS Daily Summary

Daily Weather History Graph

Daily Weather History Graph

Search for Another Location

Airport:

Trip Planner

Search our weather history database for the weather conditions in past years. The results will help you decide how hot, cold, wet, or windy it might be!

Date:

Astronomy

Apr. 10, 2013 Rise Set
Actual Time 6:53 AM CDT 7:48 PM CDT
Civil Twilight 6:27 AM CDT 8:14 PM CDT
Nautical Twilight 5:56 AM CDT 8:45 PM CDT
Astronomical Twilight 5:24 AM CDT 9:17 PM CDT
Moon 6:50 AM CDT (4/10) 8:22 PM CDT (4/10)
Length of Visible Light 13h 47m
Length of Day
12h 55m
New Moon, 0% of the Moon is Illuminated
Apr 10
New Moon
Apr 18
First Quarter
Apr 25
Full
May 2
Last Quarter
May 9
New

Hourly Weather History & Observations

Time (CDT) Temp. Windchill Dew Point Humidity Pressure Visibility Wind Dir Wind Speed Gust Speed Precip Events Conditions
12:15 AM 77.0 °F - 62.6 °F 61% 29.76 in 10.0 mi South 10.4 mph - N/A   Scattered Clouds
12:35 AM 77.0 °F - 62.6 °F 61% 29.76 in 10.0 mi South 11.5 mph 20.7 mph N/A   Mostly Cloudy
12:55 AM 77.0 °F - 62.6 °F 61% 29.75 in 10.0 mi South 13.8 mph 19.6 mph N/A   Overcast
1:15 AM 77.0 °F - 62.6 °F 61% 29.74 in 10.0 mi South 13.8 mph 21.9 mph N/A   Mostly Cloudy
1:35 AM 77.0 °F - 62.6 °F 61% 29.74 in 10.0 mi South 9.2 mph 18.4 mph N/A   Mostly Cloudy
1:55 AM 77.0 °F - 62.6 °F 61% 29.74 in 10.0 mi South 11.5 mph - N/A   Mostly Cloudy
2:15 AM 77.0 °F - 62.6 °F 61% 29.73 in 10.0 mi SSW 11.5 mph 18.4 mph N/A   Scattered Clouds
2:35 AM 60.8 °F - 51.8 °F 72% 29.76 in 10.0 mi WNW 16.1 mph 29.9 mph N/A   Mostly Cloudy
2:55 AM 57.2 °F - 50.0 °F 77% 29.78 in 10.0 mi West 9.2 mph 15.0 mph N/A Rain Rain
3:15 AM 55.4 °F - 50.0 °F 82% 29.79 in 7.0 mi WNW 9.2 mph - 0.01 in Rain Light Rain
3:35 AM 53.6 °F - 50.0 °F 88% 29.81 in 10.0 mi West 11.5 mph - 0.01 in Rain Rain
3:55 AM 51.8 °F - 48.2 °F 88% 29.81 in 10.0 mi West 10.4 mph - 0.02 in Rain , Thunderstorm Light Thunderstorms and Rain
4:15 AM 51.8 °F - 48.2 °F 88% 29.80 in 10.0 mi WNW 4.6 mph - 0.02 in Rain , Thunderstorm Light Thunderstorms and Rain
4:35 AM 51.8 °F - 48.2 °F 88% 29.79 in 10.0 mi NW 6.9 mph - 0.02 in Rain Light Rain
4:55 AM 51.8 °F - 48.2 °F 88% 29.79 in 10.0 mi West 6.9 mph - 0.02 in Rain Light Rain
5:15 AM 51.8 °F - 46.4 °F 82% 29.83 in 10.0 mi West 13.8 mph - N/A Rain , Thunderstorm Light Thunderstorms and Rain
5:35 AM 50.0 °F - 46.4 °F 87% 29.84 in 10.0 mi West 13.8 mph 17.3 mph N/A Rain , Thunderstorm Light Thunderstorms and Rain
5:55 AM 50.0 °F - 44.6 °F 82% 29.86 in 10.0 mi WNW 11.5 mph 18.4 mph N/A Thunderstorm Unknown
6:15 AM 48.2 °F - 44.6 °F 87% 29.84 in 10.0 mi WNW 8.1 mph - N/A Thunderstorm Thunderstorm
6:35 AM 48.2 °F - 44.6 °F 87% 29.82 in 10.0 mi NNW 5.8 mph - N/A Thunderstorm Mostly Cloudy
6:55 AM 50.0 °F - 44.6 °F 82% 29.83 in 10.0 mi NW 3.5 mph - N/A Rain Light Rain
7:15 AM 50.0 °F - 44.6 °F 82% 29.82 in 10.0 mi NNW 5.8 mph - N/A   Mostly Cloudy
7:35 AM 50.0 °F - 46.4 °F 87% 29.83 in 10.0 mi WNW 6.9 mph - N/A   Mostly Cloudy
7:55 AM 48.2 °F - 44.6 °F 87% 29.85 in 10.0 mi West 8.1 mph - N/A Thunderstorm Overcast
8:15 AM 48.2 °F - 44.6 °F 87% 29.84 in 10.0 mi West 8.1 mph - N/A Thunderstorm Overcast
8:35 AM 48.2 °F - 44.6 °F 87% 29.87 in 10.0 mi West 12.7 mph - N/A   Overcast
8:55 AM 46.4 °F 40.7 °F 44.6 °F 93% 29.87 in 10.0 mi WNW 12.7 mph - N/A   Overcast
9:15 AM 46.4 °F 41.5 °F 44.6 °F 93% 29.88 in 7.0 mi WNW 10.4 mph - N/A Thunderstorm Overcast
9:35 AM 44.6 °F 39.2 °F 42.8 °F 93% 29.87 in 7.0 mi WNW 10.4 mph - N/A   Overcast
9:55 AM 44.6 °F 39.2 °F 42.8 °F 93% 29.88 in 10.0 mi NW 10.4 mph 18.4 mph 0.01 in Rain , Thunderstorm Light Thunderstorms and Rain
10:15 AM 44.6 °F 39.7 °F 42.8 °F 93% 29.87 in 10.0 mi NW 9.2 mph - N/A Thunderstorm Unknown
10:35 AM 44.6 °F 39.2 °F 42.8 °F 93% 29.89 in 10.0 mi West 10.4 mph - N/A Thunderstorm Overcast
10:55 AM 44.6 °F 39.2 °F 42.8 °F 93% 29.90 in 10.0 mi West 10.4 mph 19.6 mph N/A Thunderstorm Unknown
11:15 AM 44.6 °F 38.4 °F 41.0 °F 87% 29.91 in 10.0 mi West 12.7 mph - N/A Thunderstorm Drizzle
11:35 AM 42.8 °F 37.0 °F 41.0 °F 93% 29.88 in 10.0 mi NW 10.4 mph - 0.01 in Rain , Thunderstorm Light Thunderstorms and Rain
11:55 AM 42.8 °F 37.5 °F 41.0 °F 93% 29.89 in 5.0 mi WNW 9.2 mph - 0.07 in Rain , Thunderstorm Rain
12:15 PM 42.8 °F 38.6 °F 41.0 °F 93% 29.87 in 10.0 mi NW 6.9 mph - N/A Thunderstorm Overcast
12:35 PM 42.8 °F 36.2 °F 41.0 °F 93% 29.88 in 10.0 mi NW 12.7 mph - 0.01 in   Overcast
12:55 PM 42.8 °F 36.6 °F 41.0 °F 93% 29.88 in 4.0 mi WNW 11.5 mph - 0.01 in Rain , Thunderstorm Light Thunderstorms and Rain
1:15 PM 42.8 °F 36.6 °F 42.8 °F 100% 29.90 in 2.5 mi WNW 11.5 mph - N/A Rain , Thunderstorm Rain
1:35 PM 42.8 °F 35.1 °F 41.0 °F 93% 29.89 in 3.0 mi WNW 16.1 mph - N/A Thunderstorm Unknown
1:55 PM 41.0 °F 33.1 °F 41.0 °F 100% 29.88 in 5.0 mi NW 15.0 mph 21.9 mph N/A Thunderstorm Unknown
2:15 PM 41.0 °F 35.2 °F 39.2 °F 93% 29.85 in 4.0 mi NNW 9.2 mph - N/A Rain , Thunderstorm Light Thunderstorms and Rain
2:35 PM 41.0 °F 34.3 °F 37.4 °F 87% 29.86 in 7.0 mi NW 11.5 mph - N/A Thunderstorm Overcast
2:55 PM 41.0 °F 34.3 °F 37.4 °F 87% 29.90 in 3.0 mi WNW 11.5 mph 17.3 mph 0.03 in Rain , Thunderstorm Thunderstorms and Rain
3:15 PM 41.0 °F 34.7 °F 39.2 °F 93% 29.83 in 1.5 mi NW 10.4 mph - 0.14 in Rain , Thunderstorm Heavy Thunderstorms and Rain
3:35 PM 41.0 °F 34.7 °F 39.2 °F 93% 29.87 in 4.0 mi WNW 10.4 mph 31.1 mph 0.21 in Rain , Thunderstorm Heavy Thunderstorms and Rain
3:55 PM 41.0 °F 35.2 °F 39.2 °F 93% 29.91 in 10.0 mi West 9.2 mph - 0.27 in Rain , Thunderstorm Light Thunderstorms and Rain
4:15 PM 41.0 °F 33.5 °F 37.4 °F 87% 29.80 in 7.0 mi NNW 13.8 mph - 0.02 in Rain , Thunderstorm Rain
4:35 PM 41.0 °F 38.0 °F 37.4 °F 87% 29.87 in 10.0 mi NW 4.6 mph - 0.04 in Rain , Thunderstorm Light Thunderstorms and Rain
4:55 PM 41.0 °F 37.1 °F 37.4 °F 87% 29.85 in 10.0 mi NW 5.8 mph - 0.04 in Thunderstorm Overcast
5:15 PM 41.0 °F 36.4 °F 37.4 °F 87% 29.85 in 10.0 mi WNW 6.9 mph - N/A Thunderstorm Overcast
5:35 PM 41.0 °F 35.8 °F 37.4 °F 87% 29.89 in 10.0 mi West 8.1 mph - 0.01 in Rain , Thunderstorm Light Thunderstorms and Rain
5:55 PM 41.0 °F 35.2 °F 39.2 °F 93% 29.87 in 10.0 mi NW 9.2 mph - 0.02 in Rain Light Rain
6:15 PM 42.8 °F 37.0 °F 39.2 °F 87% 29.88 in 10.0 mi West 10.4 mph 17.3 mph N/A   Overcast
6:35 PM 41.0 °F 32.2 °F 37.4 °F 87% 29.87 in 10.0 mi WNW 18.4 mph - N/A   Overcast
6:55 PM 41.0 °F 33.5 °F 37.4 °F 87% 29.87 in 10.0 mi NW 13.8 mph 21.9 mph N/A   Overcast
7:15 PM 41.0 °F 33.9 °F 37.4 °F 87% 29.89 in 10.0 mi NW 12.7 mph 18.4 mph N/A   Overcast
7:35 PM 41.0 °F 35.2 °F 37.4 °F 87% 29.89 in 10.0 mi WNW 9.2 mph - N/A   Overcast
7:55 PM 41.0 °F 34.7 °F 37.4 °F 87% 29.90 in 10.0 mi WNW 10.4 mph - N/A   Overcast
8:15 PM 41.0 °F 33.9 °F 37.4 °F 87% 29.90 in 10.0 mi WNW 12.7 mph - N/A   Overcast
8:35 PM 41.0 °F 34.3 °F 37.4 °F 87% 29.90 in 10.0 mi WNW 11.5 mph - N/A   Overcast
8:55 PM 41.0 °F 34.3 °F 37.4 °F 87% 29.90 in 10.0 mi WNW 11.5 mph - N/A   Overcast
9:35 PM 41.0 °F 33.9 °F 37.4 °F 87% 29.92 in 10.0 mi WNW 12.7 mph 23.0 mph N/A   Overcast
10:15 PM 41.0 °F 33.1 °F 35.6 °F 81% 29.92 in 10.0 mi WNW 15.0 mph 18.4 mph N/A   Overcast
10:55 PM 41.0 °F 34.7 °F 35.6 °F 81% 29.92 in 10.0 mi NW 10.4 mph - N/A   Overcast
11:15 PM 41.0 °F 33.9 °F 35.6 °F 81% 29.94 in 10.0 mi WNW 12.7 mph 20.7 mph N/A   Overcast
11:35 PM 39.2 °F 31.2 °F 35.6 °F 87% 29.94 in 10.0 mi NW 13.8 mph 21.9 mph N/A   Overcast
11:55 PM 39.2 °F 31.6 °F 35.6 °F 87% 29.95 in 10.0 mi WNW 12.7 mph - N/A   Overcast